Location: Unspecified
(0.0000°N, 0.0000°E)
Time: 16:46:45
(UTC+00:00)

Interbol-2 - Pass Details

Date: 11 June 2023
Orbit: 911 x 19062 km, 62.8° (Epoch: 28 September)

Event Time Altitude Azimuth Distance (km) Brightness Sun altitude
Rises 02:04:39 0° 305° (NW) 20,407 12.6 -51.9°
Reaches altitude 10° 04:37:20 10° 350° (N) 20,070 12.8 -18.9°
Maximum altitude 05:46:33 30° 44° (NE) 7,311 11.4 -3.0°
Drops below altitude 10° 06:01:30 10° 101° (E) 5,366 10.9 0.4°
Sets 06:04:39 0° 113° (ESE) 5,616 10.7 1.2°
